Weather History for KMEH - August, 2013

Change the Weather History Date:

Sunday, August 4, 2013

  Actual Average Record
Temperature  
Mean Temperature 60 °F -  
Max Temperature 82 °F 79 °F 97 °F (1998)
Min Temperature 39 °F 39 °F 33 °F (2007)
Degree Days  
Heating Degree Days 6    
Growing Degree Days 10 (Base 50)    
Moisture  
Dew Point 43 °F    
Average Humidity 57    
Maximum Humidity 93    
Minimum Humidity 25    
Precipitation  
Precipitation 0.00 in - - ()
Sea Level Pressure  
Sea Level Pressure 30.05 in    
Wind  
Wind Speed 1 mph (North)    
Max Wind Speed 5 mph    
Max Gust Speed -    
Visibility 10 miles    
Events      
Averages and records for this station are not official NWS values.
T = Trace of Precipitation, MM = Missing Value Source: NWS Daily Summary

Daily Weather History Graph

Daily Weather History Graph

Search for Another Location

Airport or City:

Trip Planner

Search our weather history database for the weather conditions in past years. The results will help you decide how hot, cold, wet, or windy it might be!

Date:

Astronomy

Aug. 04, 2013 Rise Set
Actual Time 5:41 AM PDT 8:17 PM PDT
Civil Twilight 5:07 AM PDT 8:50 PM PDT
Nautical Twilight 4:25 AM PDT 9:32 PM PDT
Astronomical Twilight 3:36 AM PDT 10:21 PM PDT
Moon 3:45 AM PDT (8/4) 6:43 PM PDT (8/4)
Length of Visible Light 15h 43m
Length of Day
14h 35m
Waning Crescent, 4% of the Moon is Illuminated
Aug 4
Waning Crescent
Aug 6
New
Aug 14
First Quarter
Aug 20
Full
Aug 28
Last Quarter

Hourly Weather History & Observations

Time (PDT) Temp. Dew Point Humidity Pressure Visibility Wind Dir Wind Speed Gust Speed Precip Events Conditions
12:56 AM 46.0 °F 43.0 °F 89% 30.09 in 10.0 mi Calm Calm - N/A   Clear
1:56 AM 44.1 °F 42.1 °F 93% 30.09 in 10.0 mi Calm Calm - N/A   Clear
2:56 AM 43.0 °F 39.9 °F 89% 30.08 in 10.0 mi Calm Calm - N/A   Clear
3:56 AM 41.0 °F 39.0 °F 93% 30.08 in 10.0 mi Calm Calm - N/A   Clear
4:56 AM 39.9 °F 37.9 °F 93% 30.08 in 10.0 mi Calm Calm - N/A   Clear
5:56 AM 39.0 °F 37.0 °F 93% 30.09 in 10.0 mi Calm Calm - N/A   Clear
6:56 AM 44.1 °F 39.9 °F 85% 30.09 in 10.0 mi Calm Calm - N/A   Clear
7:56 AM 54.0 °F 44.1 °F 69% 30.08 in 10.0 mi Calm Calm - N/A   Clear
8:56 AM 64.9 °F 46.9 °F 52% 30.08 in 10.0 mi Calm Calm - N/A   Clear
9:56 AM 71.1 °F 46.0 °F 41% 30.06 in 10.0 mi Calm Calm - N/A   Clear
10:56 AM 73.9 °F 46.0 °F 37% 30.06 in 10.0 mi Variable 4.6 mph - N/A   Clear
11:56 AM 77.0 °F 46.0 °F 33% 30.06 in 10.0 mi Variable 3.5 mph - N/A   Clear
12:56 PM 78.1 °F 46.0 °F 32% 30.06 in 10.0 mi Variable 3.5 mph - N/A   Clear
1:56 PM 79.0 °F 45.0 °F 30% 30.04 in 10.0 mi Variable 4.6 mph - N/A   Clear
2:56 PM 80.1 °F 44.1 °F 28% 30.03 in 10.0 mi Variable 3.5 mph - N/A   Clear
3:56 PM 80.1 °F 42.1 °F 26% 30.01 in 10.0 mi Variable 4.6 mph - N/A   Clear
4:56 PM 80.1 °F 41.0 °F 25% 30.01 in 10.0 mi Variable 3.5 mph - N/A   Clear
5:56 PM 79.0 °F 42.1 °F 27% 30.00 in 10.0 mi Calm Calm - N/A   Clear
6:56 PM 77.0 °F 42.1 °F 29% 29.99 in 10.0 mi Variable 3.5 mph - N/A   Clear
7:56 PM 72.0 °F 44.1 °F 37% 30.00 in 10.0 mi Calm Calm - N/A   Clear
8:56 PM 64.9 °F 46.9 °F 52% 29.99 in 10.0 mi Calm Calm - N/A   Clear
9:56 PM 59.0 °F 48.0 °F 67% 30.01 in 10.0 mi Calm Calm - N/A   Clear
10:56 PM 55.0 °F 46.9 °F 74% 30.01 in 10.0 mi Calm Calm - N/A   Clear
11:56 PM 53.1 °F 46.0 °F 77% 30.01 in 10.0 mi Calm Calm - N/A   Clear